TimeEST,TemperatureF,Dew PointF,Humidity,Sea Level PressureIn,VisibilityMPH,Wind Direction,Wind SpeedMPH,Gust SpeedMPH,PrecipitationIn,Events,Conditions,WindDirDegrees,DateUTC
12:15 AM,46.4,46.4,100,30.02,5.0,WSW,3.5,-,N/A,,Clear,240,2013-02-20 05:15:00
12:35 AM,46.4,46.4,100,30.02,10.0,WSW,3.5,-,N/A,,Clear,240,2013-02-20 05:35:00
12:55 AM,44.6,44.6,100,30.03,7.0,Calm,Calm,-,N/A,,Clear,0,2013-02-20 05:55:00
1:15 AM,44.6,44.6,100,30.03,7.0,WSW,3.5,-,N/A,,Clear,250,2013-02-20 06:15:00
1:35 AM,44.6,44.6,100,30.04,7.0,Calm,Calm,-,N/A,,Clear,0,2013-02-20 06:35:00
1:55 AM,44.6,44.6,100,30.04,7.0,West,3.5,-,N/A,,Clear,280,2013-02-20 06:55:00
2:15 AM,44.6,44.6,100,30.04,7.0,Calm,Calm,-,N/A,,Clear,0,2013-02-20 07:15:00
2:35 AM,42.8,42.8,100,30.04,7.0,Calm,Calm,-,0.01,,Clear,0,2013-02-20 07:35:00
2:55 AM,42.8,42.8,100,30.04,7.0,Calm,Calm,-,0.01,,Clear,0,2013-02-20 07:55:00
3:15 AM,39.2,39.2,100,30.05,5.0,Calm,Calm,-,N/A,,Clear,0,2013-02-20 08:15:00
3:35 AM,39.2,39.2,100,30.05,5.0,Calm,Calm,-,N/A,,Clear,0,2013-02-20 08:35:00
3:55 AM,37.4,37.4,100,30.05,4.0,Calm,Calm,-,N/A,,Clear,0,2013-02-20 08:55:00
4:15 AM,37.4,37.4,100,30.06,4.0,Calm,Calm,-,N/A,,Clear,0,2013-02-20 09:15:00
4:35 AM,35.6,35.6,100,30.06,1.8,Calm,Calm,-,N/A,Snow,Light Snow,0,2013-02-20 09:35:00
4:55 AM,35.6,35.6,100,30.07,1.5,Calm,Calm,-,N/A,Snow,Light Snow,0,2013-02-20 09:55:00
5:15 AM,35.6,35.6,100,30.08,2.5,Calm,Calm,-,N/A,Snow,Light Snow,0,2013-02-20 10:15:00
5:35 AM,35.6,35.6,100,30.09,3.0,Calm,Calm,-,N/A,,Clear,0,2013-02-20 10:35:00
5:55 AM,33.8,33.8,100,30.09,3.0,Calm,Calm,-,N/A,,Clear,0,2013-02-20 10:55:00
6:15 AM,33.8,33.8,100,30.09,2.5,Calm,Calm,-,N/A,,Clear,0,2013-02-20 11:15:00
6:35 AM,32.0,32.0,100,30.10,1.0,Calm,Calm,-,N/A,Snow,Light Snow,0,2013-02-20 11:35:00
7:15 AM,32.0,32.0,100,30.12,0.2,Calm,Calm,-,N/A,Snow,Light Snow,0,2013-02-20 12:15:00
7:35 AM,32.0,32.0,100,30.13,0.8,Calm,Calm,-,N/A,,Mist,0,2013-02-20 12:35:00
7:55 AM,33.8,33.8,100,30.13,4.0,Calm,Calm,-,N/A,,Clear,0,2013-02-20 12:55:00
8:15 AM,35.6,35.6,100,30.13,5.0,Calm,Calm,-,N/A,,Clear,0,2013-02-20 13:15:00
9:15 AM,42.8,32.0,66,30.15,5.0,Calm,Calm,-,N/A,,Haze,0,2013-02-20 14:15:00
9:35 AM,44.6,32.0,61,30.15,7.0,North,4.6,-,N/A,,Clear,10,2013-02-20 14:35:00
10:15 AM,46.4,26.6,46,30.15,7.0,North,3.5,-,N/A,,Clear,360,2013-02-20 15:15:00
10:35 AM,48.2,28.4,46,30.15,7.0,NNE,3.5,-,N/A,,Clear,20,2013-02-20 15:35:00
10:55 AM,48.2,26.6,43,30.15,7.0,Calm,Calm,-,N/A,,Clear,0,2013-02-20 15:55:00
11:15 AM,50.0,26.6,40,30.15,7.0,Calm,Calm,-,N/A,,Clear,0,2013-02-20 16:15:00
11:35 AM,50.0,24.8,37,30.14,7.0,NW,3.5,-,N/A,,Clear,310,2013-02-20 16:35:00
11:55 AM,51.8,24.8,35,30.13,7.0,West,6.9,-,N/A,,Clear,270,2013-02-20 16:55:00
12:15 PM,51.8,26.6,38,30.12,7.0,South,4.6,-,N/A,,Clear,180,2013-02-20 17:15:00
12:35 PM,53.6,23.0,30,30.11,7.0,Calm,Calm,-,N/A,,Clear,0,2013-02-20 17:35:00
12:55 PM,53.6,23.0,30,30.09,7.0,Calm,Calm,-,N/A,,Clear,0,2013-02-20 17:55:00
1:15 PM,53.6,23.0,30,30.08,7.0,SW,4.6,-,N/A,,Clear,230,2013-02-20 18:15:00
1:35 PM,53.6,24.8,33,30.07,7.0,NW,3.5,-,N/A,,Clear,310,2013-02-20 18:35:00
1:55 PM,55.4,26.6,33,30.07,7.0,WSW,8.1,-,N/A,,Clear,240,2013-02-20 18:55:00
2:15 PM,55.4,23.0,29,30.05,7.0,West,3.5,-,N/A,,Clear,280,2013-02-20 19:15:00
2:35 PM,55.4,24.8,31,30.05,7.0,SSW,3.5,-,N/A,,Clear,210,2013-02-20 19:35:00
2:55 PM,55.4,23.0,29,30.05,7.0,WNW,6.9,-,N/A,,Clear,290,2013-02-20 19:55:00
3:15 PM,57.2,26.6,31,30.05,7.0,West,3.5,-,N/A,,Clear,280,2013-02-20 20:15:00
3:35 PM,57.2,26.6,31,30.05,7.0,WSW,3.5,-,N/A,,Clear,250,2013-02-20 20:35:00
3:55 PM,57.2,24.8,29,30.05,7.0,WNW,5.8,-,N/A,,Clear,290,2013-02-20 20:55:00
4:15 PM,55.4,23.0,29,30.06,7.0,West,6.9,-,N/A,,Clear,260,2013-02-20 21:15:00
4:35 PM,57.2,26.6,31,30.07,7.0,West,3.5,-,N/A,,Clear,260,2013-02-20 21:35:00
4:55 PM,55.4,26.6,33,30.07,7.0,West,5.8,-,N/A,,Clear,260,2013-02-20 21:55:00
5:15 PM,53.6,26.6,35,30.06,7.0,Calm,Calm,-,N/A,,Clear,0,2013-02-20 22:15:00
5:35 PM,53.6,28.4,38,30.06,7.0,Calm,Calm,-,N/A,,Clear,0,2013-02-20 22:35:00
5:55 PM,51.8,32.0,47,30.08,7.0,Calm,Calm,-,N/A,,Clear,0,2013-02-20 22:55:00
6:15 PM,50.0,32.0,50,30.08,10.0,Calm,Calm,-,N/A,,Clear,0,2013-02-20 23:15:00
6:35 PM,46.4,37.4,71,30.09,10.0,Calm,Calm,-,N/A,,Clear,0,2013-02-20 23:35:00
6:55 PM,46.4,37.4,71,30.10,7.0,Calm,Calm,-,N/A,,Clear,0,2013-02-20 23:55:00
7:15 PM,44.6,37.4,76,30.11,7.0,Calm,Calm,-,N/A,,Clear,0,2013-02-21 00:15:00
7:35 PM,44.6,37.4,76,30.11,7.0,Calm,Calm,-,N/A,,Clear,0,2013-02-21 00:35:00
7:55 PM,44.6,39.2,81,30.12,7.0,Calm,Calm,-,N/A,,Clear,0,2013-02-21 00:55:00
8:15 PM,44.6,39.2,81,30.11,7.0,Calm,Calm,-,N/A,,Clear,0,2013-02-21 01:15:00
8:35 PM,44.6,37.4,76,30.10,7.0,Calm,Calm,-,N/A,,Clear,0,2013-02-21 01:35:00
8:55 PM,44.6,41.0,87,30.09,10.0,Calm,Calm,-,N/A,,Clear,0,2013-02-21 01:55:00
9:15 PM,42.8,39.2,87,30.08,10.0,Calm,Calm,-,N/A,,Clear,0,2013-02-21 02:15:00
9:35 PM,42.8,39.2,87,30.08,7.0,Calm,Calm,-,N/A,,Clear,0,2013-02-21 02:35:00
9:55 PM,42.8,39.2,87,30.11,7.0,Calm,Calm,-,N/A,,Scattered Clouds,0,2013-02-21 02:55:00
10:15 PM,42.8,41.0,93,30.11,10.0,Calm,Calm,-,N/A,,Mostly Cloudy,0,2013-02-21 03:15:00
10:35 PM,42.8,41.0,93,30.12,5.0,Calm,Calm,-,N/A,,Mostly Cloudy,0,2013-02-21 03:35:00
10:55 PM,42.8,41.0,93,30.12,7.0,Calm,Calm,-,N/A,,Overcast,0,2013-02-21 03:55:00
11:15 PM,41.0,41.0,100,30.12,7.0,Calm,Calm,-,N/A,,Mostly Cloudy,0,2013-02-21 04:15:00
11:35 PM,41.0,41.0,100,30.12,7.0,Calm,Calm,-,N/A,,Scattered Clouds,0,2013-02-21 04:35:00
11:55 PM,37.4,37.4,100,30.11,7.0,Calm,Calm,-,N/A,,Clear,0,2013-02-21 04:55:00